{"data":{"norad_id":66999,"intl_designator":"2025-292G","name":"2025-292G","alt_names":[],"object_type":"PAYLOAD","status":"ACTIVE","operator":null,"country":"PRC","launch_date":"2025-12-10","launch_site_code":"JSC","launch_vehicle":null,"mission":null,"orbit_class":"UNKNOWN","rcs_meters":null,"size_class":null,"mass_kg":null,"dimensions":null,"purposes":[],"wikipedia_slug":null,"has_3d_model":false,"image_url":null,"decayed_at":null,"tle_current":{"epoch":"2026-05-25T03:26:29.423040Z","epoch_age_seconds":52895,"freshness":"FRESH","line1":"1 66999U 25292G   26145.14339610  .00004675  00000+0  31915-3 0  9997","line2":"2 66999  97.6367 221.2823 0017274  89.9914 270.3293 15.06556150 24983","mean_motion":15.0655615,"eccentricity":0.0017274,"inclination_deg":97.6367,"raan_deg":221.2823,"arg_perigee_deg":89.9914,"mean_anomaly_deg":270.3293,"bstar":0.00031915,"rev_number":2498,"period_min":95.582232364854,"perigee_km":534.77100153836,"apogee_km":558.69504249041,"semimajor_km":6924.8700220144,"source":"CELESTRAK","updated_at":"2026-05-25T13:38:06.639268Z"}}}